Location: ?????
(31.8092°N, 35.2590°E)
Time: 03:57:46
(UTC+00:00)

Lacrosse 5 - Pass Details

Date: 24 October 2021
Orbit: 714 x 724 km, 57.0° (Epoch: 28 August)

Event Time Altitude Azimuth Distance (km) Brightness Sun altitude
Rises 17:18:38 0° 207° (SSW) 3,120 5.4 -30.7°
Reaches altitude 10° 17:21:01 10° 203° (SSW) 2,203 4.5 -31.2°
Enters shadow 17:21:44 14° 201° (SSW) 1,941 4.2 -31.4°
